This is the latest recevied weather packets stored in our database for station/object WP3OF-1. If no packets are shown the sender has not sent any weather packets the latest 10 day(s).
| Time | Temp. | Humidity | Pressure | Rain* | Wind** | Luminosity | Snow |
|---|---|---|---|---|---|---|---|
| 1777989404 | 28.33° C | 79% | 1018.6 hPa | 0 mm | - | - | - |
| 1777989100 | 27.78° C | 80% | 1018.9 hPa | 0 mm | - | - | - |
| 1777988796 | 27.78° C | 80% | 1018.7 hPa | 0 mm | - | - | - |
| 1777988494 | 28.33° C | 80% | 1018.6 hPa | 0 mm | - | - | - |
| 1777988191 | 28.33° C | 79% | 1018.5 hPa | 0 mm | - | - | - |
| 1777987887 | 27.78° C | 79% | 1018.4 hPa | 0 mm | - | - | - |
| 1777987583 | 27.78° C | 81% | 1018.5 hPa | 0 mm | - | - | - |
| 1777987281 | 27.78° C | 81% | 1018.4 hPa | 0 mm | - | - | - |
| 1777986977 | 27.78° C | 82% | 1018.6 hPa | 0 mm | - | - | - |
| 1777986675 | 27.22° C | 83% | 1018.3 hPa | 0 mm | - | - | - |
| 1777986373 | 27.22° C | 83% | 1018.4 hPa | 0 mm | - | - | - |
| 1777986071 | 27.22° C | 83% | 1018.7 hPa | 0 mm | - | - | - |
| 1777985768 | 28.33° C | 81% | 1018.4 hPa | 0 mm | - | - | - |
| 1777985465 | 27.78° C | 80% | 1018.6 hPa | 0 mm | - | - | - |
| 1777985161 | 27.78° C | 81% | 1018.1 hPa | 0 mm | - | - | - |
| 1777984857 | 28.33° C | 80% | 1018.4 hPa | 0 mm | - | - | - |
| 1777984553 | 27.78° C | 82% | 1018.5 hPa | 0 mm | - | - | - |
| 1777984250 | 27.22° C | 83% | 1018.3 hPa | 0 mm | - | - | - |
| 1777983947 | 27.78° C | 82% | 1018.5 hPa | 0 mm | - | - | - |
| 1777983644 | 27.78° C | 82% | 1018.1 hPa | 0 mm | - | - | - |
| 1777983340 | 27.22° C | 82% | 1018.2 hPa | 0 mm | - | - | - |
| 1777983037 | 26.67° C | 82% | 1018.1 hPa | 0 mm | - | - | - |
| 1777982734 | 26.67° C | 83% | 1018 hPa | 0 mm | - | - | - |
| 1777982429 | 27.22° C | 83% | 1018.1 hPa | 0 mm | - | - | - |
| 1777982124 | 26.67° C | 85% | 1018 hPa | 0 mm | - | - | - |
* Rain latest hour (hover to see other rain measurements)
** Current wind speed in m/s (hover to see current wind gust speed)